Location: ????????
(60.4333°N, 46.4710°E)
Time: 04:45:57
(UTC+00:00)

Cosmos 1470 Rocket - Pass Details

Date: 25 November 2020
Orbit: 604 x 633 km, 82.5° (Epoch: 19 January)

Event Time Altitude Azimuth Distance (km) Brightness Sun altitude
Rises 15:20:34 0° 344° (NNW) 2,893 7.2 -22.9°
Reaches altitude 10° 15:22:49 10° 342° (NNW) 1,980 6.3 -23.2°
Maximum altitude 15:27:09 65° 261° (W) 675 3.9 -23.7°
Drops below altitude 10° 15:31:26 10° 180° (S) 1,955 6.1 -24.2°
Sets 15:33:38 0° 177° (S) 2,853 6.9 -24.5°
